| time (UTC) | temp F | wind direction | speed knots | gust knots | rain 1hr in | rain 24hr in | rain mn in | humidity % | barometer mb |
| 20260904195008 | 75 | 316 | 3.5 | 7.0 | 0.00 | 0.00 | 0.00 | 29 | 1031.5 |
| 20260904194503 | 74 | 337 | 1.7 | 6.1 | 0.00 | 0.00 | 0.00 | 30 | 1031.9 |
| 20260904193958 | 73 | 297 | 0.9 | 1.7 | 0.00 | 0.00 | 0.00 | 30 | 1031.8 |
| 20260904193453 | 71 | 247 | 0.9 | 5.2 | 0.00 | 0.00 | 0.00 | 32 | 1031.8 |
| 20260904192949 | 70 | 78 | 2.6 | 3.5 | 0.00 | 0.00 | 0.00 | 31 | 1031.5 |
| 20260904192449 | 70 | 21 | 3.5 | 6.1 | 0.00 | 0.00 | 0.00 | 31 | 1031.6 |
| 20260904191945 | 71 | 20 | 1.7 | 5.2 | 0.00 | 0.00 | 0.00 | 31 | 1031.6 |
| 20260904191441 | 71 | 295 | 0.9 | 5.2 | 0.00 | 0.00 | 0.00 | 32 | 1031.8 |
| 20260904190938 | 71 | 330 | 1.7 | 12.2 | 0.00 | 0.00 | 0.00 | 31 | 1031.6 |
| 20260904190432 | 72 | 311 | 2.6 | 3.5 | 0.00 | 0.00 | 0.00 | 30 | 1031.8 |
| 20260904185929 | 71 | 269 | 3.5 | 5.2 | 0.00 | 0.00 | 0.00 | 30 | 1031.8 |
| 20260904185424 | 72 | 72 | 4.3 | 7.0 | 0.00 | 0.00 | 0.00 | 29 | 1031.9 |
| 20260904184919 | 72 | 295 | 3.5 | 6.1 | 0.00 | 0.00 | 0.00 | 31 | 1031.9 |
| 20260904184413 | 72 | 292 | 2.6 | 7.0 | 0.00 | 0.00 | 0.00 | 30 | 1031.5 |
| 20260904183908 | 72 | 205 | 2.6 | 8.7 | 0.00 | 0.00 | 0.00 | 32 | 1031.9 |
| 20260904183403 | 73 | 286 | 1.7 | 2.6 | 0.00 | 0.00 | 0.00 | 30 | 1032.0 |
| 20260904182859 | 71 | 303 | 3.5 | 7.8 | 0.00 | 0.00 | 0.00 | 31 | 1031.9 |
| 20260904182354 | 71 | 30 | 3.5 | 6.1 | 0.00 | 0.00 | 0.00 | 31 | 1031.8 |
| 20260904181849 | 72 | 318 | 6.1 | 7.0 | 0.00 | 0.00 | 0.00 | 30 | 1031.8 |
| 20260904181344 | 73 | 19 | 1.7 | 2.6 | 0.00 | 0.00 | 0.00 | 30 | 1031.9 |
| 20260904180839 | 71 | 131 | 6.1 | 7.8 | 0.00 | 0.00 | 0.00 | 30 | 1031.8 |
| 20260904180329 | 71 | 330 | 2.6 | 6.1 | 0.00 | 0.00 | 0.00 | 30 | 1032.0 |
| 20260904175828 | 72 | 339 | 1.7 | 3.5 | 0.00 | 0.00 | 0.00 | 29 | 1031.9 |
| 20260904175326 | 71 | 254 | 1.7 | 6.1 | 0.00 | 0.00 | 0.00 | 30 | 1032.1 |
| 20260904174821 | 71 | 30 | 2.6 | 7.0 | 0.00 | 0.00 | 0.00 | 30 | 1032.0 |
| 20260904174317 | 70 | 331 | 0.9 | 2.6 | 0.00 | 0.00 | 0.00 | 31 | 1032.0 |
| 20260904173812 | 71 | 242 | 0.0 | 5.2 | 0.00 | 0.00 | 0.00 | 29 | 1032.1 |
| 20260904173308 | 71 | 240 | 0.0 | 1.7 | 0.00 | 0.00 | 0.00 | 29 | 1032.1 |
| 20260904172804 | 70 | 298 | 0.9 | 3.5 | 0.00 | 0.00 | 0.00 | 32 | 1032.3 |
| 20260904172305 | 71 | 297 | 2.6 | 3.5 | 0.00 | 0.00 | 0.00 | 32 | 1032.1 |
| 20260904171753 | 70 | 241 | 0.9 | 2.6 | 0.00 | 0.00 | 0.00 | 30 | 1032.4 |
| 20260904171248 | 70 | 316 | 1.7 | 2.6 | 0.00 | 0.00 | 0.00 | 31 | 1032.0 |
| 20260904170744 | 70 | 40 | 1.7 | 3.5 | 0.00 | 0.00 | 0.00 | 31 | 1032.3 |
| 20260904170240 | 71 | 274 | 2.6 | 3.5 | 0.00 | 0.00 | 0.00 | 29 | 1032.0 |
| 20260904165738 | 70 | 264 | 0.9 | 2.6 | 0.00 | 0.00 | 0.00 | 29 | 1032.4 |
| 20260904165232 | 69 | 140 | 2.6 | 3.5 | 0.00 | 0.00 | 0.00 | 30 | 1032.3 |
| 20260904164727 | 69 | 0 | 4.3 | 5.2 | 0.00 | 0.00 | 0.00 | 31 | 1032.0 |
| 20260904164222 | 68 | 331 | 3.5 | 7.8 | 0.00 | 0.00 | 0.00 | 32 | 1032.1 |
| 20260904163718 | 69 | 8 | 2.6 | 3.5 | 0.00 | 0.00 | 0.00 | 31 | 1032.1 |
| 20260904163214 | 69 | 260 | 2.6 | 6.1 | 0.00 | 0.00 | 0.00 | 31 | 1032.3 |
| 20260904162712 | 69 | 151 | 2.6 | 2.6 | 0.00 | 0.00 | 0.00 | 32 | 1032.3 |
| 20260904162207 | 69 | 162 | 2.6 | 5.2 | 0.00 | 0.00 | 0.00 | 34 | 1032.0 |
| 20260904161703 | 69 | 98 | 1.7 | 6.1 | 0.00 | 0.00 | 0.00 | 34 | 1031.9 |
| 20260904161158 | 70 | 336 | 2.6 | 3.5 | 0.00 | 0.00 | 0.00 | 33 | 1031.9 |
| 20260904160654 | 68 | 238 | 0.9 | 3.5 | 0.00 | 0.00 | 0.00 | 34 | 1032.1 |
| 20260904160149 | 68 | 269 | 0.0 | 6.1 | 0.00 | 0.00 | 0.00 | 34 | 1031.9 |
| 20260904155644 | 67 | 117 | 4.3 | 5.2 | 0.00 | 0.00 | 0.00 | 34 | 1031.9 |
| 20260904155143 | 68 | 28 | 0.9 | 5.2 | 0.00 | 0.00 | 0.00 | 35 | 1031.8 |
| 20260904154641 | 69 | 191 | 1.7 | 3.5 | 0.00 | 0.00 | 0.00 | 34 | 1031.9 |
| 20260904154136 | 68 | 278 | 0.9 | 2.6 | 0.00 | 0.00 | 0.00 | 35 | 1031.9 |
| 20260904153632 | 67 | 131 | 2.6 | 5.2 | 0.00 | 0.00 | 0.00 | 33 | 1031.8 |
| 20260904153127 | 70 | 258 | 3.5 | 3.5 | 0.00 | 0.00 | 0.00 | 35 | 1031.5 |
| 20260904152623 | 69 | 224 | 0.9 | 1.7 | 0.00 | 0.00 | 0.00 | 33 | 1031.6 |
| 20260904152118 | 67 | 329 | 3.5 | 5.2 | 0.00 | 0.00 | 0.00 | 37 | 1031.6 |
| 20260904151613 | 68 | 247 | 1.7 | 2.6 | 0.00 | 0.00 | 0.00 | 35 | 1031.4 |
| 20260904151112 | 67 | 226 | 1.7 | 1.7 | 0.00 | 0.00 | 0.00 | 35 | 1031.5 |
| 20260904150608 | 68 | 272 | 0.9 | 1.7 | 0.00 | 0.00 | 0.00 | 31 | 1031.5 |
| 20260904145602 | 67 | 259 | 0.9 | 0.9 | 0.00 | 0.00 | 0.00 | 32 | 1031.5 |
| 20260904145056 | 67 | 313 | 2.6 | 2.6 | 0.00 | 0.00 | 0.00 | 33 | 1031.5 |
| 20260904144552 | 66 | 253 | 0.0 | 0.9 | 0.00 | 0.00 | 0.00 | 34 | 1031.8 |
| 20260904144048 | 67 | 247 | 0.9 | 1.7 | 0.00 | 0.00 | 0.00 | 36 | 1031.4 |
| 20260904143544 | 65 | 258 | 0.0 | 0.9 | 0.00 | 0.00 | 0.00 | 34 | 1031.2 |
| 20260904143041 | 64 | 272 | 0.9 | 3.5 | 0.00 | 0.00 | 0.00 | 38 | 1031.2 |
| 20260904142536 | 64 | 242 | 0.9 | 2.6 | 0.00 | 0.00 | 0.00 | 38 | 1031.4 |
| 20260904142032 | 63 | 240 | 0.9 | 0.9 | 0.00 | 0.00 | 0.00 | 44 | 1031.5 |
| 20260904141532 | 61 | 252 | 0.0 | 0.0 | 0.00 | 0.00 | 0.00 | 46 | 1031.6 |
| 20260904141027 | 60 | 241 | 0.0 | 0.0 | 0.00 | 0.00 | 0.00 | 46 | 1031.4 |
| 20260904140527 | 60 | 234 | 0.0 | 0.0 | 0.00 | 0.00 | 0.00 | 43 | 1031.2 |
| 20260904140022 | 59 | 214 | 0.0 | 0.0 | 0.00 | 0.00 | 0.00 | 47 | 1031.2 |
| 20260904135521 | 59 | 211 | 0.0 | 0.0 | 0.00 | 0.00 | 0.00 | 48 | 1031.0 |
| 20260904135017 | 58 | 250 | 0.0 | 0.0 | 0.00 | 0.00 | 0.00 | 48 | 1031.2 |
| 20260904134512 | 57 | 244 | 0.9 | 0.9 | 0.00 | 0.00 | 0.00 | 50 | 1031.1 |
| 20260904134007 | 56 | 236 | 0.9 | 1.7 | 0.00 | 0.00 | 0.00 | 48 | 1031.1 |
| 20260904133501 | 56 | 225 | 1.7 | 2.6 | 0.00 | 0.00 | 0.00 | 50 | 1030.8 |
| 20260904132957 | 56 | 222 | 1.7 | 1.7 | 0.00 | 0.00 | 0.00 | 49 | 1031.0 |
| 20260904132457 | 55 | 223 | 1.7 | 1.7 | 0.00 | 0.00 | 0.00 | 47 | 1030.7 |
| 20260904131952 | 54 | 209 | 2.6 | 2.6 | 0.00 | 0.00 | 0.00 | 48 | 1030.7 |
| 20260904131447 | 54 | 212 | 1.7 | 2.6 | 0.00 | 0.00 | 0.00 | 47 | 1030.8 |
| 20260904130943 | 54 | 236 | 0.9 | 2.6 | 0.00 | 0.00 | 0.00 | 47 | 1030.7 |
| 20260904130442 | 54 | 210 | 1.7 | 2.6 | 0.00 | 0.00 | 0.00 | 46 | 1030.4 |
| 20260904125936 | 55 | 209 | 1.7 | 2.6 | 0.00 | 0.00 | 0.00 | 44 | 1030.2 |
| 20260904125433 | 54 | 207 | 2.6 | 3.5 | 0.00 | 0.00 | 0.00 | 44 | 1030.6 |
| 20260904124927 | 53 | 212 | 1.7 | 2.6 | 0.00 | 0.00 | 0.00 | 45 | 1029.9 |
| 20260904124423 | 52 | 209 | 2.6 | 2.6 | 0.00 | 0.00 | 0.00 | 46 | 1030.2 |
| 20260904123918 | 52 | 203 | 2.6 | 2.6 | 0.00 | 0.00 | 0.00 | 46 | 1030.2 |
| 20260904123413 | 52 | 200 | 2.6 | 3.5 | 0.00 | 0.00 | 0.00 | 47 | 1030.3 |
| 20260904122908 | 52 | 189 | 3.5 | 3.5 | 0.00 | 0.00 | 0.00 | 45 | 1030.0 |
| 20260904122407 | 52 | 196 | 2.6 | 2.6 | 0.00 | 0.00 | 0.00 | 49 | 1029.9 |
| 20260904121902 | 53 | 198 | 2.6 | 2.6 | 0.00 | 0.00 | 0.00 | 47 | 1029.9 |
| 20260904121359 | 55 | 234 | 0.9 | 2.6 | 0.00 | 0.00 | 0.00 | 44 | 1029.9 |
| 20260904120855 | 55 | 207 | 2.6 | 2.6 | 0.00 | 0.00 | 0.00 | 42 | 1029.9 |
| 20260904120351 | 57 | 227 | 1.7 | 2.6 | 0.00 | 0.00 | 0.00 | 40 | 1029.6 |
| 20260904115846 | 58 | 282 | 0.9 | 3.5 | 0.00 | 0.00 | 0.00 | 39 | 1030.0 |
| 20260904115341 | 58 | 244 | 0.9 | 3.5 | 0.00 | 0.00 | 0.00 | 39 | 1029.8 |
| 20260904114841 | 58 | 214 | 1.7 | 5.2 | 0.00 | 0.00 | 0.00 | 38 | 1029.8 |
| 20260904114335 | 57 | 188 | 3.5 | 5.2 | 0.00 | 0.00 | 0.00 | 38 | 1029.8 |
| 20260904113831 | 58 | 224 | 2.6 | 3.5 | 0.00 | 0.00 | 0.00 | 38 | 1029.8 |
| 20260904113330 | 57 | 206 | 5.2 | 7.0 | 0.00 | 0.00 | 0.00 | 38 | 1029.9 |
| 20260904112825 | 57 | 202 | 1.7 | 5.2 | 0.00 | 0.00 | 0.00 | 43 | 1029.6 |
| 20260904112320 | 53 | 207 | 1.7 | 5.2 | 0.00 | 0.00 | 0.00 | 41 | 1029.9 |
| 20260904111816 | 52 | 239 | 2.6 | 2.6 | 0.00 | 0.00 | 0.00 | 45 | 1029.8 |
| 20260904111312 | 52 | 200 | 2.6 | 2.6 | 0.00 | 0.00 | 0.00 | 47 | 1029.5 |
| 20260904110808 | 52 | 209 | 1.7 | 2.6 | 0.00 | 0.00 | 0.00 | 48 | 1029.5 |
| 20260904110307 | 52 | 250 | 0.0 | 1.7 | 0.00 | 0.00 | 0.00 | 47 | 1029.9 |
| 20260904105802 | 52 | 211 | 3.5 | 3.5 | 0.00 | 0.00 | 0.00 | 46 | 1029.6 |
| 20260904105305 | 52 | 205 | 2.6 | 2.6 | 0.00 | 0.00 | 0.00 | 49 | 1029.5 |
| 20260904104757 | 53 | 195 | 2.6 | 2.6 | 0.00 | 0.00 | 0.00 | 48 | 1029.3 |
| 20260904104253 | 52 | 198 | 2.6 | 3.5 | 0.00 | 0.00 | 0.00 | 47 | 1029.5 |
| 20260904103749 | 52 | 214 | 2.6 | 2.6 | 0.00 | 0.00 | 0.00 | 48 | 1029.5 |
| 20260904103243 | 52 | 209 | 2.6 | 2.6 | 0.00 | 0.00 | 0.00 | 49 | 1029.5 |
| 20260904102739 | 52 | 205 | 2.6 | 2.6 | 0.00 | 0.00 | 0.00 | 49 | 1029.4 |
| 20260904102234 | 52 | 209 | 2.6 | 2.6 | 0.00 | 0.00 | 0.00 | 49 | 1029.3 |
| 20260904101731 | 52 | 206 | 1.7 | 2.6 | 0.00 | 0.00 | 0.00 | 49 | 1029.1 |
| 20260904101226 | 52 | 204 | 2.6 | 2.6 | 0.00 | 0.00 | 0.00 | 50 | 1029.1 |
| 20260904100722 | 52 | 207 | 2.6 | 2.6 | 0.00 | 0.00 | 0.00 | 49 | 1029.1 |
| 20260904100218 | 53 | 199 | 3.5 | 3.5 | 0.00 | 0.00 | 0.00 | 49 | 1029.3 |
| 20260904095717 | 53 | 206 | 2.6 | 3.5 | 0.00 | 0.00 | 0.00 | 47 | 1029.1 |
| 20260904095212 | 53 | 198 | 3.5 | 3.5 | 0.00 | 0.00 | 0.00 | 47 | 1029.3 |
| 20260904094707 | 53 | 198 | 3.5 | 3.5 | 0.00 | 0.00 | 0.00 | 47 | 1029.3 |
| 20260904094202 | 55 | 200 | 2.6 | 2.6 | 0.00 | 0.00 | 0.00 | 44 | 1029.3 |
| 20260904093659 | 55 | 214 | 2.6 | 5.2 | 0.00 | 0.00 | 0.00 | 43 | 1029.3 |
| 20260904093158 | 55 | 219 | 1.7 | 2.6 | 0.00 | 0.00 | 0.00 | 45 | 1029.3 |
| 20260904092654 | 56 | 240 | 0.9 | 2.6 | 0.00 | 0.00 | 0.00 | 44 | 1029.1 |
| 20260904092150 | 58 | 224 | 1.7 | 1.7 | 0.00 | 0.00 | 0.00 | 41 | 1029.1 |
| 20260904091646 | 59 | 222 | 3.5 | 3.5 | 0.00 | 0.00 | 0.00 | 39 | 1029.1 |
| 20260904091146 | 60 | 214 | 3.5 | 5.2 | 0.00 | 0.00 | 0.00 | 38 | 1029.1 |
| 20260904090641 | 59 | 255 | 3.5 | 5.2 | 0.00 | 0.00 | 0.00 | 39 | 1029.3 |
| 20260904090137 | 59 | 225 | 2.6 | 3.5 | 0.00 | 0.00 | 0.00 | 40 | 1029.1 |
| 20260904085637 | 58 | 215 | 1.7 | 5.2 | 0.00 | 0.00 | 0.00 | 41 | 1029.3 |
| 20260904085132 | 57 | 212 | 3.5 | 5.2 | 0.00 | 0.00 | 0.00 | 42 | 1029.4 |
| 20260904084627 | 57 | 225 | 1.7 | 3.5 | 0.00 | 0.00 | 0.00 | 43 | 1029.3 |
| 20260904084124 | 56 | 189 | 1.7 | 3.5 | 0.00 | 0.00 | 0.00 | 43 | 1029.0 |
| 20260904083620 | 57 | 252 | 1.7 | 3.5 | 0.00 | 0.00 | 0.00 | 44 | 1029.3 |
| 20260904083115 | 55 | 226 | 0.9 | 2.6 | 0.00 | 0.00 | 0.00 | 47 | 1029.1 |
| 20260904082610 | 54 | 222 | 1.7 | 1.7 | 0.00 | 0.00 | 0.00 | 53 | 1029.1 |
| 20260904082106 | 53 | 227 | 2.6 | 2.6 | 0.00 | 0.00 | 0.00 | 55 | 1029.0 |
| 20260904081601 | 53 | 242 | 0.9 | 2.6 | 0.00 | 0.00 | 0.00 | 57 | 1029.0 |
| 20260904081055 | 53 | 201 | 2.6 | 2.6 | 0.00 | 0.00 | 0.00 | 54 | 1029.1 |
| 20260904080551 | 54 | 205 | 3.5 | 3.5 | 0.00 | 0.00 | 0.00 | 53 | 1029.1 |
| 20260904080047 | 54 | 205 | 2.6 | 2.6 | 0.00 | 0.00 | 0.00 | 53 | 1029.4 |
| 20260904075543 | 54 | 210 | 2.6 | 2.6 | 0.00 | 0.00 | 0.00 | 53 | 1029.3 |
| 20260904075038 | 54 | 206 | 2.6 | 2.6 | 0.00 | 0.00 | 0.00 | 54 | 1029.1 |
| 20260904074537 | 55 | 215 | 1.7 | 2.6 | 0.00 | 0.00 | 0.00 | 54 | 1029.3 |
| 20260904074032 | 55 | 221 | 1.7 | 2.6 | 0.00 | 0.00 | 0.00 | 54 | 1029.4 |
| 20260904073527 | 55 | 208 | 1.7 | 2.6 | 0.00 | 0.00 | 0.00 | 53 | 1029.3 |
| 20260904073023 | 55 | 208 | 2.6 | 2.6 | 0.00 | 0.00 | 0.00 | 51 | 1029.1 |
| 20260904072519 | 55 | 216 | 2.6 | 2.6 | 0.00 | 0.00 | 0.00 | 51 | 1029.5 |
| 20260904072013 | 55 | 208 | 2.6 | 2.6 | 0.00 | 0.00 | 0.00 | 51 | 1029.5 |
| 20260904071509 | 54 | 205 | 2.6 | 2.6 | 0.00 | 0.00 | 0.00 | 51 | 1029.4 |
| 20260904071004 | 55 | 216 | 2.6 | 2.6 | 0.00 | 0.00 | 0.00 | 50 | 1029.5 |
| 20260904070502 | 55 | 210 | 1.7 | 2.6 | 0.00 | 0.00 | 0.00 | 51 | 1029.6 |
| 20260904065957 | 55 | 208 | 2.6 | 2.6 | 0.00 | 0.00 | 0.00 | 51 | 1029.5 |
| 20260904065453 | 54 | 207 | 2.6 | 2.6 | 0.00 | 0.00 | 0.00 | 52 | 1029.6 |
| 20260904064948 | 55 | 204 | 2.6 | 2.6 | 0.00 | 0.00 | 0.00 | 52 | 1029.6 |
| 20260904064444 | 55 | 207 | 2.6 | 3.5 | 0.00 | 0.00 | 0.00 | 50 | 1029.6 |
| 20260904063939 | 55 | 205 | 2.6 | 2.6 | 0.00 | 0.00 | 0.00 | 50 | 1029.8 |
| 20260904063436 | 55 | 207 | 2.6 | 2.6 | 0.00 | 0.00 | 0.00 | 51 | 1029.9 |
| 20260904062931 | 55 | 217 | 2.6 | 2.6 | 0.00 | 0.00 | 0.00 | 49 | 1029.8 |
| 20260904062426 | 56 | 198 | 2.6 | 2.6 | 0.00 | 0.00 | 0.00 | 49 | 1030.0 |
| 20260904061922 | 55 | 193 | 3.5 | 5.2 | 0.00 | 0.00 | 0.00 | 48 | 1029.9 |
| 20260904061419 | 55 | 205 | 2.6 | 2.6 | 0.00 | 0.00 | 0.00 | 51 | 1029.8 |
| 20260904060915 | 55 | 197 | 3.5 | 3.5 | 0.00 | 0.00 | 0.00 | 50 | 1029.9 |
| 20260904060410 | 55 | 207 | 2.6 | 2.6 | 0.00 | 0.00 | 0.00 | 51 | 1030.0 |
| 20260904055906 | 55 | 205 | 1.7 | 2.6 | 0.00 | 0.00 | 0.00 | 51 | 1029.8 |
| 20260904055401 | 55 | 206 | 2.6 | 2.6 | 0.00 | 0.00 | 0.00 | 50 | 1029.6 |
| 20260904054856 | 55 | 202 | 2.6 | 2.6 | 0.00 | 0.00 | 0.00 | 51 | 1029.9 |
| 20260904054352 | 55 | 210 | 3.5 | 3.5 | 0.00 | 0.00 | 0.00 | 50 | 1029.9 |
| 20260904053847 | 55 | 201 | 2.6 | 2.6 | 0.00 | 0.00 | 0.00 | 51 | 1029.8 |
| 20260904053347 | 55 | 200 | 2.6 | 3.5 | 0.00 | 0.00 | 0.00 | 50 | 1029.8 |
| 20260904052843 | 56 | 203 | 2.6 | 2.6 | 0.00 | 0.00 | 0.00 | 50 | 1029.6 |
| 20260904052339 | 55 | 196 | 2.6 | 2.6 | 0.00 | 0.00 | 0.00 | 50 | 1029.5 |
| 20260904051835 | 56 | 201 | 2.6 | 2.6 | 0.00 | 0.00 | 0.00 | 51 | 1029.9 |
| 20260904051331 | 57 | 205 | 2.6 | 2.6 | 0.00 | 0.00 | 0.00 | 48 | 1029.8 |
| 20260904050830 | 57 | 206 | 3.5 | 3.5 | 0.00 | 0.00 | 0.00 | 47 | 1029.8 |
| 20260904050328 | 58 | 215 | 1.7 | 3.5 | 0.00 | 0.00 | 0.00 | 46 | 1029.8 |
| 20260904045822 | 58 | 202 | 2.6 | 3.5 | 0.00 | 0.00 | 0.00 | 46 | 1029.9 |
| 20260904045317 | 58 | 212 | 1.7 | 2.6 | 0.00 | 0.00 | 0.00 | 47 | 1029.8 |
| 20260904044817 | 59 | 226 | 1.7 | 2.6 | 0.00 | 0.00 | 0.00 | 46 | 1029.8 |
| 20260904044314 | 60 | 229 | 1.7 | 1.7 | 0.00 | 0.00 | 0.00 | 43 | 1029.9 |
| 20260904043809 | 61 | 244 | 1.7 | 2.6 | 0.00 | 0.00 | 0.00 | 43 | 1029.9 |
| 20260904043306 | 61 | 202 | 2.6 | 3.5 | 0.00 | 0.00 | 0.00 | 43 | 1029.8 |
| 20260904042800 | 61 | 209 | 1.7 | 3.5 | 0.00 | 0.00 | 0.00 | 42 | 1029.9 |
| 20260904042257 | 61 | 248 | 0.9 | 1.7 | 0.00 | 0.00 | 0.00 | 42 | 1030.0 |
| 20260904041756 | 61 | 246 | 1.7 | 5.2 | 0.00 | 0.00 | 0.00 | 42 | 1030.0 |
| 20260904041253 | 61 | 230 | 1.7 | 5.2 | 0.00 | 0.00 | 0.00 | 43 | 1030.2 |
| 20260904040748 | 61 | 245 | 1.7 | 1.7 | 0.00 | 0.00 | 0.00 | 42 | 1030.0 |
| 20260904040244 | 60 | 215 | 2.6 | 2.6 | 0.00 | 0.00 | 0.00 | 43 | 1030.0 |
| 20260904035740 | 60 | 226 | 1.7 | 2.6 | 0.00 | 0.00 | 0.00 | 43 | 1030.2 |
| 20260904035235 | 60 | 232 | 1.7 | 2.6 | 0.00 | 0.00 | 0.00 | 43 | 1030.3 |
| 20260904034734 | 60 | 234 | 1.7 | 2.6 | 0.00 | 0.00 | 0.00 | 44 | 1030.4 |
| 20260904034230 | 60 | 224 | 1.7 | 2.6 | 0.00 | 0.00 | 0.00 | 43 | 1030.2 |
| 20260904033725 | 60 | 227 | 2.6 | 2.6 | 0.00 | 0.00 | 0.00 | 43 | 1030.2 |
| 20260904033222 | 60 | 220 | 1.7 | 1.7 | 0.00 | 0.00 | 0.00 | 43 | 1030.2 |
| 20260904032713 | 60 | 194 | 1.7 | 2.6 | 0.00 | 0.00 | 0.00 | 42 | 1029.9 |
| 20260904032211 | 60 | 198 | 2.6 | 2.6 | 0.00 | 0.00 | 0.00 | 44 | 1030.2 |
| 20260904031706 | 60 | 254 | 0.9 | 1.7 | 0.00 | 0.00 | 0.00 | 44 | 1029.9 |
| 20260904031201 | 60 | 225 | 0.9 | 1.7 | 0.00 | 0.00 | 0.00 | 43 | 1030.0 |
| 20260904030657 | 60 | 222 | 1.7 | 2.6 | 0.00 | 0.00 | 0.00 | 43 | 1030.2 |
| 20260904030152 | 60 | 227 | 1.7 | 1.7 | 0.00 | 0.00 | 0.00 | 43 | 1030.3 |
| 20260904025648 | 61 | 244 | 0.9 | 1.7 | 0.00 | 0.00 | 0.00 | 41 | 1029.9 |
| 20260904025143 | 62 | 252 | 0.0 | 0.9 | 0.00 | 0.00 | 0.00 | 42 | 1030.2 |
| 20260904024639 | 62 | 254 | 0.0 | 1.7 | 0.00 | 0.00 | 0.00 | 41 | 1030.0 |
| 20260904024134 | 62 | 259 | 0.9 | 1.7 | 0.00 | 0.00 | 0.00 | 40 | 1030.0 |
| 20260904023630 | 61 | 249 | 0.9 | 1.7 | 0.00 | 0.00 | 0.00 | 42 | 1029.8 |
| 20260904023125 | 61 | 247 | 0.0 | 0.9 | 0.00 | 0.00 | 0.00 | 44 | 1029.9 |
| 20260904022625 | 61 | 236 | 1.7 | 1.7 | 0.00 | 0.00 | 0.00 | 43 | 1029.6 |
| 20260904022122 | 63 | 248 | 0.9 | 0.9 | 0.00 | 0.00 | 0.00 | 41 | 1029.5 |
| 20260904021617 | 62 | 276 | 1.7 | 2.6 | 0.00 | 0.00 | 0.00 | 39 | 1029.4 |
| 20260904021112 | 63 | 255 | 0.0 | 0.9 | 0.00 | 0.00 | 0.00 | 41 | 1029.5 |
| 20260904020608 | 62 | 267 | 0.0 | 0.9 | 0.00 | 0.00 | 0.00 | 40 | 1029.6 |
| 20260904020057 | 63 | 253 | 0.0 | 0.9 | 0.00 | 0.00 | 0.00 | 40 | 1029.4 |
| 20260904015556 | 64 | 269 | 0.0 | 0.9 | 0.00 | 0.00 | 0.00 | 38 | 1029.5 |
| 20260904015056 | 64 | 272 | 1.7 | 3.5 | 0.00 | 0.00 | 0.00 | 38 | 1029.4 |
| 20260904014550 | 64 | 296 | 0.0 | 1.7 | 0.00 | 0.00 | 0.00 | 39 | 1029.3 |
| 20260904014046 | 64 | 259 | 0.0 | 1.7 | 0.00 | 0.00 | 0.00 | 39 | 1029.1 |
| 20260904013542 | 64 | 298 | 1.7 | 2.6 | 0.00 | 0.00 | 0.00 | 38 | 1029.4 |
| 20260904013038 | 64 | 267 | 0.9 | 1.7 | 0.00 | 0.00 | 0.00 | 38 | 1029.3 |
| 20260904012532 | 64 | 315 | 1.7 | 3.5 | 0.00 | 0.00 | 0.00 | 38 | 1029.4 |
| 20260904012026 | 65 | 333 | 3.5 | 6.1 | 0.00 | 0.00 | 0.00 | 37 | 1029.3 |
| 20260904011525 | 65 | 259 | 0.0 | 0.9 | 0.00 | 0.00 | 0.00 | 38 | 1029.3 |
| 20260904011021 | 65 | 284 | 0.9 | 3.5 | 0.00 | 0.00 | 0.00 | 38 | 1029.4 |
| 20260904010517 | 65 | 278 | 1.7 | 2.6 | 0.00 | 0.00 | 0.00 | 38 | 1029.6 |
| 20260904010013 | 66 | 43 | 1.7 | 5.2 | 0.00 | 0.00 | 0.00 | 38 | 1029.3 |
| 20260904005508 | 66 | 355 | 2.6 | 3.5 | 0.00 | 0.00 | 0.00 | 37 | 1029.1 |
| 20260904005003 | 66 | 27 | 1.7 | 6.1 | 0.00 | 0.00 | 0.00 | 37 | 1029.3 |
| 20260904004458 | 67 | 352 | 3.5 | 6.1 | 0.00 | 0.00 | 0.00 | 37 | 1029.3 |
| 20260904003953 | 67 | 272 | 2.6 | 6.1 | 0.00 | 0.00 | 0.00 | 35 | 1029.3 |
| 20260904003449 | 68 | 288 | 0.9 | 2.6 | 0.00 | 0.00 | 0.00 | 35 | 1029.3 |
| 20260904002944 | 68 | 297 | 2.6 | 7.8 | 0.00 | 0.00 | 0.00 | 34 | 1029.3 |
| 20260904002441 | 68 | 326 | 9.6 | 12.2 | 0.00 | 0.00 | 0.00 | 34 | 1029.1 |
| 20260904001939 | 67 | 271 | 0.9 | 1.7 | 0.00 | 0.00 | 0.00 | 36 | 1029.1 |
| 20260904001435 | 68 | 252 | 0.9 | 7.8 | 0.00 | 0.00 | 0.00 | 35 | 1028.9 |
| 20260904000934 | 68 | 264 | 2.6 | 5.2 | 0.00 | 0.00 | 0.00 | 34 | 1029.3 |
| 20260904000435 | 69 | 315 | 2.6 | 2.6 | 0.00 | 0.00 | 0.00 | 34 | 1029.3 |
| 20260903235930 | 69 | 262 | 0.0 | 2.6 | 0.00 | 0.00 | 0.00 | 34 | 1029.3 |
| 20260903235426 | 69 | 16 | 2.6 | 7.8 | 0.00 | 0.00 | 0.00 | 33 | 1029.0 |
| 20260903234925 | 69 | 281 | 3.5 | 7.0 | 0.00 | 0.00 | 0.00 | 33 | 1029.1 |
| 20260903234421 | 70 | 284 | 1.7 | 5.2 | 0.00 | 0.00 | 0.00 | 33 | 1029.1 |
| 20260903233917 | 70 | 47 | 5.2 | 7.0 | 0.00 | 0.00 | 0.00 | 33 | 1029.1 |
| 20260903233413 | 70 | 14 | 3.5 | 7.0 | 0.00 | 0.00 | 0.00 | 33 | 1029.1 |
| 20260903232908 | 70 | 299 | 3.5 | 7.0 | 0.00 | 0.00 | 0.00 | 33 | 1028.9 |
| 20260903232403 | 70 | 354 | 5.2 | 9.6 | 0.00 | 0.00 | 0.00 | 33 | 1029.0 |
| 20260903231903 | 70 | 289 | 5.2 | 6.1 | 0.00 | 0.00 | 0.00 | 33 | 1029.3 |
| 20260903231357 | 69 | 14 | 5.2 | 7.0 | 0.00 | 0.00 | 0.00 | 33 | 1029.0 |
| 20260903230853 | 70 | 344 | 4.3 | 6.1 | 0.00 | 0.00 | 0.00 | 33 | 1029.3 |
| 20260903230348 | 71 | 317 | 5.2 | 7.8 | 0.00 | 0.00 | 0.00 | 34 | 1028.9 |
| 20260903225844 | 71 | 332 | 4.3 | 7.0 | 0.00 | 0.00 | 0.00 | 33 | 1029.1 |
| 20260903225339 | 71 | 269 | 3.5 | 7.0 | 0.00 | 0.00 | 0.00 | 33 | 1029.1 |
| 20260903224835 | 71 | 353 | 6.1 | 9.6 | 0.00 | 0.00 | 0.00 | 33 | 1029.0 |
| 20260903224326 | 71 | 135 | 2.6 | 9.6 | 0.00 | 0.00 | 0.00 | 33 | 1028.9 |
| 20260903223822 | 71 | 312 | 7.0 | 8.7 | 0.00 | 0.00 | 0.00 | 33 | 1029.1 |
| 20260903223320 | 72 | 15 | 5.2 | 7.0 | 0.00 | 0.00 | 0.00 | 33 | 1029.0 |
| 20260903222815 | 71 | 305 | 2.6 | 8.7 | 0.00 | 0.00 | 0.00 | 32 | 1028.9 |
| 20260903222313 | 73 | 294 | 2.6 | 2.6 | 0.00 | 0.00 | 0.00 | 31 | 1029.0 |
| 20260903221809 | 72 | 75 | 4.3 | 5.2 | 0.00 | 0.00 | 0.00 | 31 | 1029.0 |
| 20260903221308 | 71 | 349 | 3.5 | 6.1 | 0.00 | 0.00 | 0.00 | 32 | 1029.1 |
| 20260903220806 | 70 | 322 | 2.6 | 6.1 | 0.00 | 0.00 | 0.00 | 33 | 1029.4 |
| 20260903220300 | 72 | 20 | 3.5 | 5.2 | 0.00 | 0.00 | 0.00 | 33 | 1029.3 |
| 20260903215753 | 72 | 55 | 3.5 | 5.2 | 0.00 | 0.00 | 0.00 | 31 | 1029.1 |
| 20260903215250 | 72 | 352 | 4.3 | 7.8 | 0.00 | 0.00 | 0.00 | 33 | 1029.1 |
| 20260903214747 | 71 | 25 | 2.6 | 5.2 | 0.00 | 0.00 | 0.00 | 32 | 1029.1 |
| 20260903214244 | 71 | 60 | 2.6 | 7.0 | 0.00 | 0.00 | 0.00 | 33 | 1029.1 |
| 20260903213738 | 70 | 236 | 5.2 | 8.7 | 0.00 | 0.00 | 0.00 | 33 | 1029.3 |
| 20260903213234 | 71 | 282 | 3.5 | 6.1 | 0.00 | 0.00 | 0.00 | 33 | 1029.0 |
| 20260903212729 | 71 | 299 | 5.2 | 13.9 | 0.00 | 0.00 | 0.00 | 33 | 1029.0 |
| 20260903212226 | 71 | 71 | 4.3 | 8.7 | 0.00 | 0.00 | 0.00 | 34 | 1029.3 |
| 20260903211725 | 71 | 301 | 4.3 | 12.2 | 0.00 | 0.00 | 0.00 | 34 | 1029.3 |
| 20260903211221 | 71 | 234 | 1.7 | 6.1 | 0.00 | 0.00 | 0.00 | 34 | 1029.1 |
| 20260903210717 | 71 | 354 | 3.5 | 7.0 | 0.00 | 0.00 | 0.00 | 33 | 1029.3 |
| 20260903210213 | 69 | 14 | 5.2 | 7.0 | 0.00 | 0.00 | 0.00 | 35 | 1029.4 |
| 20260903205712 | 69 | 333 | 0.9 | 7.0 | 0.00 | 0.00 | 0.00 | 36 | 1029.4 |
| 20260903205211 | 70 | 346 | 3.5 | 6.1 | 0.00 | 0.00 | 0.00 | 34 | 1029.6 |
| 20260903204707 | 70 | 5 | 3.5 | 8.7 | 0.00 | 0.00 | 0.00 | 34 | 1029.5 |
| 20260903204203 | 70 | 333 | 5.2 | 6.1 | 0.00 | 0.00 | 0.00 | 34 | 1029.6 |
| 20260903203658 | 71 | 20 | 7.8 | 13.0 | 0.00 | 0.00 | 0.00 | 33 | 1029.4 |
| 20260903203153 | 72 | 3 | 3.5 | 7.8 | 0.00 | 0.00 | 0.00 | 35 | 1029.4 |
| 20260903202648 | 72 | 7 | 0.9 | 6.1 | 0.00 | 0.00 | 0.00 | 32 | 1029.4 |
| 20260903202144 | 72 | 13 | 4.3 | 9.6 | 0.00 | 0.00 | 0.00 | 34 | 1029.6 |
| 20260903201638 | 74 | 350 | 2.6 | 7.8 | 0.00 | 0.00 | 0.00 | 31 | 1029.4 |
| 20260903201137 | 73 | 59 | 3.5 | 6.1 | 0.00 | 0.00 | 0.00 | 30 | 1029.1 |
| 20260903200632 | 73 | 338 | 6.1 | 7.0 | 0.00 | 0.00 | 0.00 | 32 | 1029.5 |
| 20260903200128 | 71 | 0 | 3.5 | 5.2 | 0.00 | 0.00 | 0.00 | 34 | 1029.4 |
| 20260903195623 | 71 | 316 | 5.2 | 7.8 | 0.00 | 0.00 | 0.00 | 34 | 1029.5 |